When you browse on this site, cookies collect data to enhance your experience and personalize the content and advertising you see.
Visit our Privacy Policy to learn more. By continuing to use the site, you agree to this use of cookies and data.
  • En España
  • Lista de países
  • Para 7 días
  • Temperatura del agua
  • El tiempo en el mapa
  • Informadores
  • user-avatar
    Iniciar sesión

    Tiempo cada hora Canillo

    Hoy, 12 Diciembre, Jueves

    Tiempo Temperatura Precipitaciones Viento Presión Humedad
    00:00 -5°C° 0 mm 3 mps 614 mmHg 93%
    01:00 -5°C° 1 mm 3 mps 613 mmHg 94%
    02:00 -4°C° 1 mm 2 mps 613 mmHg 95%
    03:00 -4°C° 1 mm 2 mps 612 mmHg 96%
    04:00 -4°C° 0.8 mm 2 mps 612 mmHg 96%
    05:00 -2°C° 0.8 mm 1 mps 612 mmHg 96%
    06:00 -4°C° 0 mm 2 mps 612 mmHg 95%
    07:00 -1°C° 0.3 mm 1 mps 612 mmHg 93%
    08:00 -1°C° 0.3 mm 1 mps 612 mmHg 90%
    09:00 0°C° 0.3 mm 1 mps 612 mmHg 88%
    10:00 +1°C° 0.2 mm 1 mps 612 mmHg 85%
    11:00 +1°C° 0.2 mm 1 mps 612 mmHg 83%
    12:00 +2°C° 0.2 mm 1 mps 612 mmHg 80%
    13:00 +1°C° 0 mm 2 mps 611 mmHg 83%
    14:00 -1°C° 0 mm 2 mps 610 mmHg 86%
    15:00 -1°C° 0 mm 2 mps 609 mmHg 89%
    16:00 -2°C° 1.1 mm 2 mps 608 mmHg 91%
    17:00 -2°C° 1.1 mm 2 mps 607 mmHg 94%
    18:00 -3°C° 1.1 mm 2 mps 606 mmHg 96%
    19:00 -3°C° 2.3 mm 2 mps 606 mmHg 96%
    20:00 -2°C° 2.3 mm 2 mps 605 mmHg 97%
    21:00 -2°C° 2.3 mm 2 mps 605 mmHg 97%
    22:00 -2°C° 3 mm 2 mps 605 mmHg 97%
    23:00 0°C° 3 mm 1 mps 605 mmHg 98%

    Mañana, 13 Diciembre, Viernes

    Tiempo Temperatura Precipitaciones Viento Presión Humedad
    00:00 +1°C° 3 mm 1 mps 606 mmHg 98%
    01:00 -1°C° 2.1 mm 2 mps 605 mmHg 98%
    02:00 -1°C° 2.1 mm 2 mps 605 mmHg 98%
    03:00 -1°C° 2.1 mm 2 mps 604 mmHg 98%
    04:00 -1°C° 2.2 mm 2 mps 604 mmHg 98%
    05:00 +1°C° 2.2 mm 2 mps 604 mmHg 99%
    06:00 +1°C° 2.2 mm 2 mps 604 mmHg 99%
    07:00 +1°C° 2.3 mm 2 mps 604 mmHg 99%
    08:00 +1°C° 2.3 mm 2 mps 604 mmHg 98%
    09:00 0°C° 2.3 mm 3 mps 605 mmHg 98%
    10:00 0°C° 2.6 mm 3 mps 605 mmHg 98%
    11:00 +1°C° 2.6 mm 3 mps 605 mmHg 98%
    12:00 +1°C° 2.6 mm 3 mps 606 mmHg 97%
    13:00 +1°C° 2.2 mm 3 mps 606 mmHg 97%
    14:00 +1°C° 2.2 mm 3 mps 606 mmHg 97%
    15:00 +1°C° 2.2 mm 3 mps 606 mmHg 97%
    16:00 +1°C° 3.3 mm 3 mps 606 mmHg 98%
    17:00 0°C° 3.3 mm 3 mps 607 mmHg 98%
    18:00 +1°C° 3.3 mm 2 mps 608 mmHg 99%
    19:00 +2°C° 3.9 mm 2 mps 608 mmHg 99%
    20:00 +2°C° 3.9 mm 2 mps 609 mmHg 99%
    21:00 +2°C° 3.9 mm 2 mps 609 mmHg 99%
    22:00 +2°C° 1.9 mm 2 mps 610 mmHg 99%
    23:00 +2°C° 1.9 mm 2 mps 610 mmHg 99%

    Pasado mañana, 14 Diciembre, Sábado

    Tiempo Temperatura Precipitaciones Viento Presión Humedad
    00:00 +2°C° 1.9 mm 2 mps 611 mmHg 98%
    01:00 +2°C° 0 mm 2 mps 611 mmHg 98%
    02:00 +1°C° 0 mm 2 mps 611 mmHg 98%
    03:00 +1°C° 0 mm 2 mps 611 mmHg 97%
    04:00 +1°C° 0 mm 2 mps 611 mmHg 96%
    05:00 0°C° 0 mm 3 mps 611 mmHg 96%
    06:00 -1°C° 0 mm 3 mps 612 mmHg 95%
    07:00 -1°C° 0 mm 3 mps 612 mmHg 94%
    08:00 +1°C° 0 mm 2 mps 613 mmHg 93%
    09:00 +1°C° 0 mm 2 mps 613 mmHg 93%
    10:00 +2°C° 0 mm 2 mps 614 mmHg 92%
    11:00 +3°C° 0 mm 1 mps 614 mmHg 91%
    12:00 +4°C° 0 mm 1 mps 614 mmHg 91%
    13:00 +4°C° 0 mm 1 mps 614 mmHg 91%
    14:00 +3°C° 0 mm 0 mps 614 mmHg 91%
    15:00 +3°C° 0 mm 0 mps 614 mmHg 92%
    16:00 +3°C° 0 mm 1 mps 614 mmHg 91%
    17:00 +2°C° 0 mm 1 mps 614 mmHg 90%
    18:00 +1°C° 0 mm 1 mps 613 mmHg 89%
    19:00 0°C° 0 mm 1 mps 613 mmHg 89%
    20:00 0°C° 0 mm 1 mps 613 mmHg 88%
    21:00 0°C° 0 mm 1 mps 613 mmHg 88%
    22:00 -2°C° 0 mm 2 mps 613 mmHg 86%
    23:00 -2°C° 0 mm 2 mps 613 mmHg 84%

    15 Diciembre, Domingo

    Tiempo Temperatura Precipitaciones Viento Presión Humedad
    00:00 -2°C° 0 mm 2 mps 613 mmHg 82%
    01:00 -1°C° 0 mm 2 mps 613 mmHg 81%
    02:00 -1°C° 0 mm 2 mps 613 mmHg 81%
    03:00 -1°C° 0 mm 2 mps 613 mmHg 81%
    04:00 -1°C° 0 mm 2 mps 613 mmHg 81%
    05:00 -1°C° 0 mm 2 mps 613 mmHg 80%
    06:00 -1°C° 0 mm 2 mps 613 mmHg 79%
    07:00 +1°C° 0 mm 2 mps 613 mmHg 79%
    08:00 +3°C° 0 mm 1 mps 614 mmHg 79%
    09:00 +4°C° 0 mm 1 mps 615 mmHg 79%
    10:00 +3°C° 0 mm 2 mps 615 mmHg 81%
    11:00 +4°C° 0 mm 2 mps 614 mmHg 83%
    12:00 +4°C° 0 mm 2 mps 614 mmHg 85%
    13:00 +4°C° 0 mm 2 mps 614 mmHg 85%
    14:00 +4°C° 0 mm 2 mps 613 mmHg 86%
    15:00 +3°C° 0 mm 2 mps 613 mmHg 87%
    16:00 +2°C° 0 mm 2 mps 612 mmHg 86%
    17:00 +1°C° 0 mm 2 mps 612 mmHg 85%
    18:00 -2°C° 0 mm 2 mps 611 mmHg 83%
    19:00 -2°C° 0 mm 2 mps 611 mmHg 80%
    20:00 -2°C° 0 mm 2 mps 611 mmHg 76%
    21:00 -2°C° 0 mm 2 mps 611 mmHg 73%
    22:00 -2°C° 0 mm 2 mps 611 mmHg 73%
    23:00 -1°C° 0 mm 2 mps 611 mmHg 74%

    16 Diciembre, Lunes

    Tiempo Temperatura Precipitaciones Viento Presión Humedad
    00:00 -1°C° 0 mm 2 mps 611 mmHg 74%
    01:00 -1°C° 0 mm 2 mps 611 mmHg 76%
    02:00 -1°C° 0 mm 2 mps 610 mmHg 77%
    03:00 -1°C° 0 mm 2 mps 610 mmHg 78%
    04:00 -1°C° 0 mm 3 mps 610 mmHg 80%
    05:00 -1°C° 0 mm 3 mps 609 mmHg 82%
    06:00 -1°C° 0 mm 3 mps 609 mmHg 83%
    07:00 0°C° 0 mm 3 mps 609 mmHg 84%
    08:00 0°C° 0 mm 3 mps 609 mmHg 84%
    09:00 +1°C° 0 mm 3 mps 610 mmHg 85%
    10:00 +1°C° 0 mm 3 mps 609 mmHg 85%
    11:00 +1°C° 0 mm 4 mps 609 mmHg 86%
    12:00 +1°C° 0 mm 4 mps 609 mmHg 86%
    13:00 +2°C° 0.1 mm 3 mps 609 mmHg 87%
    14:00 +2°C° 0.1 mm 3 mps 608 mmHg 89%
    15:00 +2°C° 0.1 mm 3 mps 608 mmHg 90%
    16:00 +1°C° 0.1 mm 3 mps 607 mmHg 90%
    17:00 +1°C° 0.1 mm 3 mps 607 mmHg 89%
    18:00 +1°C° 0.1 mm 3 mps 607 mmHg 88%
    19:00 +1°C° 0.4 mm 3 mps 607 mmHg 89%
    20:00 0°C° 0.4 mm 3 mps 607 mmHg 90%
    21:00 0°C° 0.4 mm 3 mps 607 mmHg 90%
    22:00 0°C° 0.3 mm 3 mps 607 mmHg 90%
    23:00 0°C° 0.3 mm 3 mps 607 mmHg 90%

    17 Diciembre, Martes

    Tiempo Temperatura Precipitaciones Viento Presión Humedad
    00:00 -1°C° 0.3 mm 2 mps 607 mmHg 89%
    01:00 -1°C° 0 mm 2 mps 607 mmHg 89%
    02:00 -1°C° 0 mm 2 mps 607 mmHg 88%
    03:00 -1°C° 0 mm 2 mps 607 mmHg 87%
    04:00 -1°C° 0.2 mm 2 mps 607 mmHg 89%
    05:00 -1°C° 0.2 mm 2 mps 607 mmHg 90%
    06:00 +1°C° 0.2 mm 1 mps 608 mmHg 91%
    07:00 +2°C° 0.1 mm 1 mps 609 mmHg 91%
    08:00 +2°C° 0.1 mm 1 mps 609 mmHg 91%
    09:00 +2°C° 0.1 mm 1 mps 610 mmHg 92%
    10:00 +3°C° 0.1 mm 1 mps 611 mmHg 92%
    11:00 +3°C° 0.1 mm 1 mps 611 mmHg 92%
    12:00 +3°C° 0.1 mm 1 mps 612 mmHg 93%
    13:00 +3°C° 0.1 mm 1 mps 612 mmHg 93%
    14:00 +3°C° 0.1 mm 1 mps 612 mmHg 94%
    15:00 +3°C° 0.1 mm 1 mps 612 mmHg 94%
    16:00 +2°C° 0 mm 1 mps 613 mmHg 94%
    17:00 +1°C° 0 mm 1 mps 613 mmHg 95%
    18:00 +1°C° 0 mm 1 mps 613 mmHg 95%
    19:00 0°C° 0 mm 1 mps 614 mmHg 94%
    20:00 0°C° 0 mm 1 mps 614 mmHg 93%
    21:00 -1°C° 0 mm 1 mps 614 mmHg 92%
    22:00 -1°C° 0 mm 1 mps 615 mmHg 90%
    23:00 -1°C° 0 mm 1 mps 615 mmHg 88%
    Mostrar más